Location: Newark
(45.5000°N, 11.4167°E)
Time: 05:28:04
(UTC+00:00)

A-11 Canister half - Pass Details

Date: 22 August 2019
Orbit: 1514 x 1686 km, 47.2° (Epoch: 13 September)

Event Time Altitude Azimuth Distance (km) Brightness Sun altitude
Rises 18:01:43 0° 244° (WSW) 4,681 12.4 0.7°
Reaches altitude 10° 18:04:43 10° 243° (WSW) 3,716 11.8 0.2°
Maximum altitude 18:14:08 81° 158° (SSE) 1,602 9.1 -1.4°
Drops below altitude 10° 18:23:57 10° 73° (ENE) 3,859 10.6 -3.0°
Sets 18:27:08 0° 73° (ENE) 4,869 11.1 -3.5°
